Voltar ao catálogo

ATLAS 5 CENTAUR DEB

LostHEO
NORAD 44981·DEBRIS·🇺🇸 United States

Lançado Oct 17, 2018 de Cape Canaveral Space Force Station

Loading…

Próximas Passagens (próximas 24 horas)

TLE

ObsoletoSource: Space-Track

Época: Oct 21, 2024, 13:01 UTC

1 44981U 18079BQ  24295.54268380 -.00000074  00000-0  00000-0 0  9991
2 44981  11.7864 281.8716 5179575 210.6550 104.7817  2.34133017  2482

Acompanhe ATLAS 5 CENTAUR DEB em tempo real com AllMySat

Download on the App Store